This demonstration page uses our WeatherBlox Daily Observations layout. Learn more.

Left ArrowRight Arrow

Hourly Observations for July 10, 2020

Temp ( °F °C ) Dew Point ( °F °C ) Humidity (%) Winds ( mph kmh ) Pressure ( in mb ) Visibility ( mi km ) Precip ( " mm )
12:51 am 00:51 Clear 87 30.6 47 8.3 25 25 NW 9 15 29.76 1008 10 16.0934 0 0
1:51 am 01:51 Clear 87 30.6 46 7.8 24 24 NW 13 20 29.75 1008 10 16.0934 0 0
2:51 am 02:51 Clear 86 30 47 8.3 26 26 NW 9 15 29.75 1008 10 16.0934 0 0
3:51 am 03:51 Clear 85 29.4 47 8.3 27 27 NW 9 15 29.78 1009 10 16.0934 0 0
4:51 am 04:51 Clear 87 30.6 48 8.9 26 26 NW 15 24 29.79 1009 10 16.0934 0 0
5:51 am 05:51 Sunny 86 30 48 8.9 27 27 NW 16 26 29.82 1010 10 16.0934 0 0
6:51 am 06:51 Sunny 87 30.6 50 10 28 28 WNW 18 30 29.84 1011 10 16.0934 0 0
7:51 am 07:51 Sunny 90 32.2 51 10.6 26 26 NW 20 31 29.86 1011 10 16.0934 0 0
8:51 am 08:51 Sunny 94 34.4 52 11.1 24 24 WNW 21 33 29.86 1011 10 16.0934 0 0
9:51 am 09:51 Sunny 98 36.7 51 10.6 20 20 WNW 23 37 29.85 1011 10 16.0934 0 0
10:51 am 10:51 Sunny 102 38.9 49 9.4 17 17 NW 21 33 29.83 1010 10 16.0934 0 0
11:51 am 11:51 Sunny 105 40.6 50 10 16 16 NW 20 31 29.81 1009 10 16.0934 0 0
12:51 pm 12:51 Sunny 107 41.7 50 10 15 15 W 17 28 29.78 1008 10 16.0934 0 0
1:51 pm 13:51 Sunny 109 42.8 49 9.4 13 13 WNW 16 26 29.75 1008 10 16.0934 0 0
2:51 pm 14:51 Sunny 110 43.3 47 8.3 12 12 W 17 28 29.73 1007 10 16.0934 0 0
3:51 pm 15:51 Sunny 111 43.9 45 7.2 11 11 WNW 15 24 29.7 1006 10 16.0934 0 0
4:51 pm 16:51 Sunny 111 43.9 44 6.7 10 10 WNW 15 24 29.68 1005 10 16.0934 0 0
5:51 pm 17:51 Sunny 110 43.3 43 6.1 10 10 WNW 13 20 29.68 1005 10 16.0934 0 0
6:43 pm 18:43 Sunny 97 36.1 53 11.7 23 23 ENE 26 43 29.65 1004 10 16.0934 0 0
6:51 pm 18:51 Sunny 96 35.6 53 11.7 23 23 ENE 28 44 29.74 1007 10 16.0934 0 0
7:51 pm 19:51 Clear 100 37.8 47 8.3 16 16 ENE 20 31 29.72 1007 10 16.0934 0 0
8:51 pm 20:51 Clear 99 37.2 48 8.9 18 18 W 15 24 29.72 1006 10 16.0934 0 0
9:51 pm 21:51 Clear 95 35 48 8.9 20 20 NNW 9 15 29.74 1007 10 16.0934 0 0
10:51 pm 22:51 Clear 93 33.9 48 8.9 21 21 NNW 8 13 29.74 1007 10 16.0934 0 0
11:51 pm 23:51 Clear 88 31.1 47 8.3 24 24 WNW 5 7 29.76 1008 10 16.0934 0 0

Powered by AerisWeather